THORAD AGENA D DEB, 4912

Orbit data source: Space-Track

THORAD AGENA D DEB, 4912 is space debris in SSO originally from a launch on Wed, 08 Apr 1970 UTC launched from the Air Force Western Test Range (AFWTR). Debris objects in space refer to the collection of defunct objects orbiting the Earth. Examples of debris include non-operational satellites, rocket bodies, and fragments generated from explosions, collisions, or faulty payload assembly.

Loading next visibility...
Identifier
4912, 1970-025FJ
Orbit
SSO
Country
Flag of USUS
Related business
Manufacturer
Unknown
Mission
Spacecraft
Bus & Motor
Unknown
Mass
Unknown
Launch date (UTC)
1970-04-08 (56 years ago)
Launch vehicle
Unknown
Launch site
Air Force Western Test Range (AFWTR)
Object type
Payload
Rocket body
Debris
Shape & HBR
Unknown shape, 0.1 m
Radar Cross Section
Medium (>0.1 m² and <1 m²)

Expand to show TLE details & history
Last TLE update: 18 hours ago

TLE from 18 hours ago
0 THORAD AGENA D DEB
1 04912U 70025FJ  26237.33844667  .00002321  00000-0  97050-3 0  9993
2 04912  99.7259   6.3270 0037389 110.2410 250.2793 14.26879110863954
Epoch: 2026-08-25T08:07Z
TLE epoch observation values (Epoch: 2026-08-25T08:07:21.792Z)
Latitude
0.00001°
Longitude
-89.12103°
Altitude
814.221 km
Speed
7.441 km/s
True Right ascension
00h 25m 18s
True Declination
0° 00' 00"
Sunlit
Object was in full shadow at epoch
Visualization orbit readout
Latitude
Unknown
Longitude
Unknown
Altitude
Unknown
Speed
Unknown
Apparent Right ascension
Unknown
Apparent Declination
Unknown
Sunlit
N/A
Visualization observer readout
Local Sidereal Time
17:37:15
Azimuth
Unknown
Elevation
Unknown
Doppler factor
Unknown
Orbital elements
Apogee altitude
826.219 km
Perigee altitude
772.547 km
Semi-major axis
7,177.52 km
Eccentricity
0.00374
Inclination
99.7259°
RAAN
6.327°
Arg. of periapsis
110.241°
True anomaly
249.87662°
Mean anomaly
250.2793°
Eccentric anomaly
250.0779°
Mean motion
3.56929 °/min
Orbital period
100.86 mins
BSTAR
0.0009705
Loading maneuver chart data...
Computing Atmospheric mass density...

Documentation

Showing up to 5 results
|